Location: C�mpuri de-Sus
(45.9500°N, 22.5500°E)
Time: 02:30:45
(UTC+00:00)

H-2A R/B - Pass Details

Date: 24 October 2021
Orbit: 527 x 651 km, 98.3° (Epoch: 30 November)

Event Time Altitude Azimuth Distance (km) Brightness Sun altitude
Rises 16:41:20 0° 152° (SSE) 2,887 5.7 -13.3°
Reaches altitude 10° 16:43:35 10° 147° (SSE) 1,967 4.8 -13.7°
Maximum altitude 16:47:43 52° 72° (ENE) 751 2.6 -14.4°
Drops below altitude 10° 16:51:45 10° 356° (N) 1,909 5.1 -15.1°
Sets 16:53:54 0° 351° (N) 2,792 6.0 -15.5°
